Location: Asheville, NC
(35.6000°N, 82.5500°W)
Time: 22:39:02
(UTC-05:00)

Vanguard 1 Rocket - Pass Details

Date: 14 December 2017
Orbit: 656 x 4222 km, 34.3° (Epoch: 17 January)

Event Time Altitude Azimuth Distance (km) Brightness Sun altitude
Rises 16:12:38 0° 227° (SW) 3,747 12.8 10.3°
Reaches altitude 10° 16:14:49 10° 221° (SW) 3,053 12.4 9.9°
Maximum altitude 16:22:12 50° 147° (SSE) 2,089 9.4 8.7°
Drops below altitude 10° 16:36:18 10° 78° (ENE) 5,668 10.9 6.4°
Sets 16:42:05 0° 75° (ENE) 7,247 11.4 5.4°
